Location: Newark
(39.6889°N, 28.1522°E)
Time: 15:27:11
(UTC+00:00)

NOAA 15 - Visible Passes

Search period start: 11 December 2019 00:00
Search period end: 21 December 2019 00:00
Orbit: 797 x 813 km, 98.7° (Epoch: 10 December)

Date Brightness Start Highest point End Pass type
(mag) Time Alt. Az. Time Alt. Az. Time Alt. Az.
11 Dec 4.4 16:28:04 10° SSE 16:33:18 73° ENE 16:38:33 10° N visible
11 Dec 7.5 18:11:15 10° WSW 18:13:34 13° W 18:15:54 10° WNW visible
12 Dec 6.9 04:44:21 10° NE 04:48:53 29° E 04:53:22 10° SSE visible
12 Dec 4.9 16:03:24 10° SE 16:08:19 42° ENE 16:13:15 10° N visible
12 Dec 6.8 17:44:09 10° SW 17:48:13 23° W 17:52:19 10° NW visible
13 Dec 7.5 04:20:17 10° NE 04:23:34 17° E 04:26:51 10° SE visible
13 Dec 5.5 15:39:11 10° ESE 15:43:26 26° ENE 15:47:41 10° NNE visible
13 Dec 5.9 17:18:06 10° SSW 17:22:59 39° W 17:27:53 10° NNW visible
14 Dec 6.0 15:15:38 10° E 15:18:38 16° ENE 15:21:40 10° NNE visible
14 Dec 4.8 16:52:36 10° S 16:57:49 68° WSW 17:03:04 10° NNW visible
15 Dec 4.4 16:27:32 10° SSE 16:32:45 71° ENE 16:37:59 10° N visible
15 Dec 7.5 18:10:37 10° WSW 18:13:01 13° W 18:15:25 10° WNW visible
16 Dec 6.9 04:43:50 10° NE 04:48:20 28° E 04:52:49 10° SSE visible
16 Dec 4.9 16:02:52 10° SE 16:07:46 42° ENE 16:12:41 10° N visible
16 Dec 6.8 17:43:34 10° SSW 17:47:40 23° W 17:51:48 10° NW visible
17 Dec 7.5 04:19:47 10° NE 04:23:02 16° E 04:26:16 10° SE visible
17 Dec 5.5 15:38:40 10° ESE 15:42:53 25° ENE 15:47:07 10° NNE visible
17 Dec 5.8 17:17:32 10° SSW 17:22:25 39° W 17:27:20 10° NNW visible
18 Dec 6.0 15:15:09 10° E 15:18:06 15° ENE 15:21:04 10° NNE visible
18 Dec 4.8 16:52:03 10° S 16:57:16 69° WSW 17:02:31 10° NNW visible
19 Dec 4.4 16:27:00 10° SSE 16:32:12 70° ENE 16:37:26 10° N visible
19 Dec 7.5 18:10:00 10° WSW 18:12:27 13° W 18:14:56 10° WNW visible
20 Dec 6.9 04:43:18 10° NE 04:47:47 28° E 04:52:14 10° SSE visible
20 Dec 4.9 16:02:21 10° SE 16:07:14 41° ENE 16:12:07 10° N visible
20 Dec 6.7 17:42:59 10° SSW 17:47:07 23° W 17:51:16 10° NW visible
